Location: Galaxy Quest Observatory
(44.3404°N, 69.0569°W)
Time: 07:14:19
(UTC-04:00)

N. Korean satellite - Pass Details

Date: 06 April 2020
Orbit: 455 x 505 km, 97.2° (Epoch: 30 May)

Event Time Altitude Azimuth Distance (km) Brightness Sun altitude
Rises 05:20:32 0° 32° (NNE) 2,488 11.1 -9.0°
Reaches altitude 10° 05:23:27 10° 60° (ENE) 1,602 10.8 -8.5°
Maximum altitude 05:25:14 14° 91° (E) 1,396 10.2 -8.2°
Drops below altitude 10° 05:27:00 10° 123° (ESE) 1,593 9.8 -7.9°
Sets 05:29:53 0° 151° (SSE) 2,461 10.3 -7.4°
